Location: Campillo
(40.8621°N, 4.2488°W)
Time: 06:34:32
(UTC+00:00)

X-37B - Pass Details

Date: 05 August 2021
Orbit: 381 x 393 km, 45.0° (Epoch: 29 August)

Event Time Altitude Azimuth Distance (km) Brightness Sun altitude
Exits shadow 04:25:02 - 281° (WNW) 1,578 3.2 -9.6°
Reaches altitude 10° 04:25:30 10° 284° (WNW) 1,396 3.0 -9.5°
Maximum altitude 04:28:28 38° 355° (N) 605 1.8 -9.0°
Drops below altitude 10° 04:31:26 10° 65° (ENE) 1,399 5.1 -8.5°
Sets 04:33:35 0° 74° (ENE) 2,253 6.3 -8.2°
